www.pogodaiklimat.ru

Погода и климат >> Архив погоды >> Россия >> Хабаровский край >> Тумнин


ПОГОДА в Тумнине

  • Прогноз погоды в Тумнине
  • Монитор погоды в Тумнине

АРХИВ ПОГОДЫ в Тумнине

Время (UTC), дата Ветер
(напр.,м/с)
 
Видим.   Явления Облачность Т
(С)
Тd
(С)
f
(%)
Тe
(С)
Тes
(С)
Комфортность P
(гПа)
Po
(гПа)
Тmin
(С)
Tmax
(С)
R
(мм)
R24
(мм)
S
(см)
00 16.04 В 1 50 км ясно +6.2 -5.7 42 +6 +16 опасность
простуды
1007.4 1000.3
03 16.04 Ю 1 50 км ясно +16.4 -6.0 21 +17 +33 опасность
простуды
1003.6 996.8
06 16.04 ЮВ 3 50 км ясно +17.4 -7.4 18 +17 +23 1001.6 994.8
09 16.04 Ю 2 50 км 3/0
[Ac trans]
+13.6 -7.4 23 +13 +14 1001.5 994.6 +19.5
12 16.04 штиль 0 50 км 3/0
[Ac trans]
+2.3 -5.2 58 +2 +2 1001.4 994.3
15 16.04 штиль 0 50 км 8/6 1000 м
[Cb cap Ac trans]
+0.2 -5.1 68 -1 -1 1000.3 993.0
18 16.04 штиль 0 50 км 10/10 1000 м
[Cb cap]
-1.7 -5.2 77 -3 -3 999.0 991.7
21 16.04 С 1 50 км 8/3 1000 м
[Cb cap Ac trans Ci fib]
-1.7 -4.6 81 -4 -3 1000.2 992.9 -2.2
00 17.04 В 1 50 км 9/0
[Ac trans Ci fib]
+11.3 -4.1 34 +12 +19 1001.1 994.1
03 17.04 В 4 50 км 8/0
[Ac trans Ci fib]
+17.6 -2.3 26 +17 +24 1001.1 994.4
06 17.04 В 2 50 км 10/0
[Ac trans Ci fib]
+16.2 -4.5 24 +16 +21 1002.1 995.3
09 17.04 СВ 3 50 км 10/4 1000 м
[Sc Ac As]
+10.8 -5.2 32 +9 +9 1004.0 997.1 +19.1
12 17.04 штиль 0 20 км 10/0
[Ac As Cs]
+3.8 -4.0 57 +3 +3 1006.0 998.8
15 17.04 штиль 0 50 км 10/0
[Ci sp]
+1.1 -2.9 75 0 0 1006.2 998.9
18 17.04 штиль 0 50 км 10/0
[Ac trans Ci fib]
-2.4 -4.5 85 -4 -4 1005.6 998.2
21 17.04 штиль 0 20 км 10/0
[Ac As]
-0.2 -3.1 81 -1 -1 1005.2 997.9 -2.4
00 18.04 С 2 50 км 10/0
[Ac As]
+2.7 -0.9 77 -0 +3 1004.5 997.4
03 18.04 С 1 50 км 10/0
[Ac trans]
+5.6 +1.0 72 +5 +11 1002.4 995.3
06 18.04 СВ 3 50 км 8/0
[Ac trans Ci]
+10.8 +0.5 49 +9 +14 1000.0 993.0
09 18.04 С 2 50 км 10/0
[Ac trans Ci]
+7.8 +0.7 61 +6 +6 1000.1 993.1 +11.1
12 18.04 штиль 0 50 км 10/0
[Ac trans]
+4.5 +0.2 74 +4 +4 1001.4 994.3
15 18.04 В 1 50 км 8/3 1000 м
[Cb cap Ac trans]
+3.1 +0.1 81 +2 +2 1001.3 994.1
18 18.04 С 1 50 км 10/3 1000 м
[Cb cap Ac trans]
+4.7 +2.0 83 +3 +3 999.5 992.5
21 18.04 штиль 0 10 км слаб. ливневой дождь 10/10 1000 м
[Cb cap]
+3.6 +2.3 91 +2 +2 1000.7 993.5 +2.7 0.0
00 19.04 штиль 0 4000 м слаб. ливневой дождь 10/10 1000 м
[Cb cap]
+3.7 +2.0 89 +3 +3 1001.8 994.7
03 19.04 штиль 0 50 км {ливн. осадки} 10/10 1000 м
[Cb cap]
+5.3 +1.3 75 +5 +5 1002.2 995.1
06 19.04 С 2 4000 м слаб. ливневой дождь 10/10 600 м
[Cb cap]
+4.2 +1.5 83 +1 +1 1002.8 995.7
09 19.04 штиль 0 10 км слаб. ливневой дождь 10/10 1000 м
[Cb cap]
+2.9 +1.8 92 +2 +2 1004.3 997.1 +5.8 3
12 19.04 штиль 0 10 км слаб. ливневой дождь 10/10 1000 м
[Cb cap]
+1.6 +0.6 93 0 0 1005.5 998.3
15 19.04 С 1 4000 м слаб. ливневой снег 10/10 600 м
[Cb cap]
+0.3 -0.4 95 -2 -2 1006.3 999.0
18 19.04 штиль 0 4000 м слаб. ливневой снег 10/10 600 м
[Cb cap]
+0.1 -0.5 96 -1 -1 1007.5 1000.2
21 19.04 штиль 0 4000 м слаб. ливневой снег 10/10 1000 м
[Cb cap]
+0.6 -0.1 95 -1 -1 1009.7 1002.4 0.0 6 6
00 20.04 СВ 2 50 км {ливн. осадки} 6/6 1000 м
[Cb cap]
+3.7 -1.6 68 +1 +5 1010.9 1003.7
03 20.04 Ю 2 50 км 9/9 1000 м
[Cb cap]
+5.5 -2.2 58 +3 +5 1011.6 1004.4
06 20.04 ЮЗ 1 50 км 8/8 1000 м
[Cb cap]
+6.5 -4.2 46 +6 +8 1011.2 1004.1
09 20.04 З 2 50 км ясно +4.2 -4.8 52 +2 +2 1011.7 1004.6 +7.4
12 20.04 штиль 0 50 км ясно -2.5 -4.1 89 -4 -4 1013.5 1006.1
15 20.04 штиль 0 50 км 4/0
[Ac trans Ci fib]
-3.4 -4.3 93 -5 -5 1012.8 1005.4
18 20.04 штиль 0 50 км 8/3 1000 м
[Cb cap Ac trans Ci fib]
-4.1 -4.9 94 -5 -5 1011.5 1004.1
21 20.04 ЮЗ 1 50 км 8/8 1000 м
[Cb cap]
-2.4 -3.8 90 -5 -4 1010.6 1003.3 -4.2
00 21.04 С 2 50 км 6/4 1000 м
[Cb cap Ac trans]
+4.1 -2.6 62 +2 +6 1008.7 1001.6
03 21.04 В 2 50 км 10/6 1000 м
[Cb cap Ac trans Ci]
+8.7 -2.1 47 +7 +10 1005.7 998.7
06 21.04 С 2 50 км 8/4 1000 м
[Cb cap Ac trans]
+10.0 -0.7 47 +9 +12 1004.6 997.6
09 21.04 СВ 2 50 км 9/6 1000 м
[Cb cap Ac trans]
+6.0 +2.4 78 +4 +4 1007.0 999.9 +10.7
12 21.04 штиль 0
{10}
50 км {ливн. осадки} 8/6 1000 м
[Cb cap Ac trans]
+0.7 0.0 95 -1 -1 1009.1 1001.8
15 21.04 С 1 50 км 8/3 1000 м
[Cb cap Ac trans]
+1.0 +0.4 96 -1 -1 1010.1 1002.8
18 21.04 С 1 500 м туман ?/? -0.7 -1.1 97 -3 -3 1010.5 1003.2
21 21.04 штиль 0 500 м туман ?/? -0.8 -1.2 97 -2 -2 1012.0 1004.7 -1.1 1
00 22.04 З 2 500 м туман ?/? +1.4 +0.8 96 -2 -2 1012.3 1005.0
03 22.04 С 4
{10}
50 км {туман} 9/8 1000 м
[Cb cap Ac trans]
+8.5 -8.8 28 +6 +8 1011.4 1004.3
06 22.04 СЗ 6-11
{11}
50 км {туман} 6/3 1000 м
[Cb cap Ac trans]
+10.7 -9.4 23 +8 +10 1011.7 1004.7
09 22.04 З 1
{11}
50 км 4/3 1000 м
[Cb cap Ac trans]
+8.6 -8.7 28 +9 +9 1013.2 1006.1 +11.2
12 22.04 штиль 0 50 км ясно -1.6 -6.2 71 -2 -2 1015.6 1008.2
15 22.04 штиль 0 50 км ясно -4.1 -6.5 83 -5 -5 1017.0 1009.5
18 22.04 штиль 0 50 км ясно -6.1 -7.4 90 -7 -7 1017.0 1009.5
21 22.04 штиль 0 50 км 8/0
[Ci fib]
-3.8 -6.4 82 -5 -3 1016.3 1008.8 -7.1

 

Местоположение метеостанции Тумнин (Хабаровский край, Россия): широта 49.65 долгота 140.00 высота над уровнем моря 58 м.

В архиве по умолчанию представлена погода в Тумнине за последнюю неделю. Архивные данные за месяц целиком и за предыдущие месяцы, начиная с января 2011 года, Вы можете получить, выбрав интересующий диапазон дат из раскрывающегося списка и нажав кнопку "Ввод!".


*Определитесь, кто Вы:
робот инопланетянин человек

Внимание! Время в таблицах - всемирное. Для получения местного времени необходимо прибавить поправку, которая равна 10 ч.

Смотрите также архив погоды в соседних городах и на ближайших метеорологических станциях:

Погода в Советской Гавани (Хабаровский край, Россия) (75 км)
Погода в Мопау (Хабаровский край, Россия) (97 км)
Погода в Сегжеме (Хабаровский край, Россия) (138 км)
Погода в Солекуль (Хабаровский край, Россия) (154 км)
Погода в Пильво (Сахалинская область, Россия) (157 км)
Погода в Углегорске (Сахалинская область, Россия) (159 км)
Погода в Оноре (Сахалинская область, Россия) (190 км)
Погода в Циммермановка (Хабаровский край, Россия) (195 км)
Погода в Нижнетамбовском (Хабаровский край, Россия) (195 км)
Погода в Александровске-Сахалинском (Сахалинская область, Россия) (204 км)

Пояснения к столбцам:

Ветер - указаны скорость ветра в м/с - средняя за 10 мин, порывы в срок и между сроками (в фигурных скобках) и направление, откуда дует ветер: С - северный, СВ - северо-восточный, В - восточный, ЮВ - юго-восточный, Ю - южный, ЮЗ - юго-западный, З - западный, СЗ - северо-западный.
Видимость - горизонтальная дальность видимости в метрах или километрах. При видимости от 1 до 10 км при отсутствии осадков обычно наблюдается дымка, при ухудшении видимости до 1 км и менее - туман. В сухую погоду видимость может ухудшаться дымом, пылью или мглою.
Явления - указаны атмосферные явления, наблюдавшиеся в срок или в последний час перед сроком; фигурными скобками обозначены явления, наблюдавшиеся между сроками (за 1-3 часа до срока); квадратными скобками обозначены град или гололедные отложения с указанием их диаметра в мм.
Облачность - указаны через наклонную черту общая и нижняя облачность в баллах и высота нижней границы облаков в метрах; квадратными скобками обозначены формы облаков: Ci - перистые, Cs - перисто-слоистые, Cc - перисто-кучевые, Ac - высококучевые, As - высокослоистые, Sc - слоисто-кучевые, Ns - слоисто-дождевые, Cu - кучевые, Cb - кучево-дождевые. Подробнее классификацию облаков см. в Атласе облаков (PDF).
T - Температура воздуха - температура, измеренная на высоте 2 м над землей.
Td - Температура точки росы - температура, при понижении до которой содержащийся в воздухе водяной пар достигнет насыщения.
f - Относительная влажность воздуха - влажноcть воздуха, измеренная на высоте 2 м над землей.
Te - Эффективная температура - температура, которую ощущает одетый по сезону человек в тени. Характеристика душности погоды. При расчете учитывается влияние влажности воздуха и скорости ветра на теплоощущения человека.
Tes - Эффективная температура на солнце - температура, которую ощущает человек, с поправкой на солнечный нагрев. Характеристика знойности погоды. Зависит от высоты солнца над горизонтом, облачности и скорости ветра. Ночью, в пасмурную погоду, а также при ветре 12 м/с и более поправка равна нулю.
P - Атмосферное давление - приведенное к уровню моря атмосферное давление.
Po - Атмосферное давление - измеренное на уровне метеостанции атмосферное давление.
Tmin - Минимальная температура - минимум температуры воздуха на высоте 2 м над землей.
Tmax - Максимальная температура - максимум температуры воздуха на высоте 2 м над землей.
R - Количество осадков - Количество выпавших осадков за период времени, мм. При наведении курсора мыши на число - период времени, за который выпало указанное количество осадков.
R24 - Количество осадков - Количество выпавших осадков за 24 часа, мм.
S - Снежный покров - Высота снежного покрова, см. При наведении курсора мыши на число - состояние снежного покрова и степень покрытия местности в баллах.